Regional Weather Roundup
Issued by NWS Northern Indiana

Home | Current Version | Previous Version | Graphics & Text | Print | Product List | Glossary On
Versions: 1 2 3 4 5 6 7 8 9 10 11 12 13 14 15 16 17 18 19 20 21 22 23 24 25 26 27 28 29 30 31 32 33 34 35 36 37 38 39 40 41 42 43 44 45 46 47 48 49 50
789
ASUS43 KIWX 291000
RWRIWX

KIWX WEATHER ROUNDUP
NATIONAL WEATHER SERVICE NORTHERN INDIANA
600 AM EDT MON AUG 29 2016

NOTE: "FAIR" INDICATES FEW OR NO CLOUDS BELOW 12,000 FEET WITH NO
SIGNIFICANT WEATHER AND/OR OBSTRUCTIONS TO VISIBILITY.

* THESE STATIONS ARE NOT UNDER NWS QUALITY CONTROL. THEY ALSO MAY NOT
  REPORT WEATHER SUCH AS PRECIPITATION OR FOG.

INZ001>027-291100-
NORTHERN INDIANA

CITY           SKY/WX    TMP DP  RH WIND       PRES   REMARKS
GARY*          PTCLDY    70  70 100 CALM      30.20S
KNOX*            N/A     64  55  72 CALM      30.20S VSB 1
SOUTH BEND     CLEAR     66  66 100 NE3       30.22R
GOSHEN         FOG       65  62  90 CALM      30.22R VSB 1/2
MONTICELLO*    PTCLDY    69  65  87 E6        30.17S
ANGOLA*        CLEAR     66  66 100 NE3       30.23S
FORT WAYNE     PTCLDY    67  65  93 E3        30.22R
PERU/GRISSOM   CLOUDY    68  68 100 NE6       30.18S

$$
INZ028>050-291100-
CENTRAL INDIANA

CITY           SKY/WX    TMP DP  RH WIND       PRES   REMARKS
LAFAYETTE      CLOUDY    70  70 100 NE6       30.16R
KOKOMO*        CLOUDY    68  66  94 E6        30.20R
MUNCIE*        CLEAR     69  67  93 SE3       30.21S
INDIANAPOLIS   PTCLDY    70  68  93 E6        30.17R

$$
MIZ043>046-050>051-056>058-064>065-071>073-077>080-291100-
SOUTHWEST LOWER MICHIGAN

CITY           SKY/WX    TMP DP  RH WIND       PRES   REMARKS
BATTLE CREEK   PTCLDY    65  65 100 CALM      30.25R
BENTON HARBOR  CLEAR     65  63  93 NE3       30.22R
COLDWATER*     FOG       67  67 100 CALM      30.25R VSB 3/4
HILLSDALE*     CLOUDY    67  66  95 CALM      30.25S FOG
HOLLAND        CLEAR     64  62  93 CALM      30.24S
GRAND RAPIDS   CLEAR     65  62  90 NE3       30.25R
KALAMAZOO      CLEAR     67  64  90 CALM      30.24R
STURGIS*       FOG       67  66  96 CALM      30.23R VSB 1/4

$$
OHZ001>008-015>018-024>025-291100-
NORTHWEST OHIO

CITY           SKY/WX    TMP DP  RH WIND       PRES   REMARKS
DEFIANCE       PTCLDY    67  65  93 NE5       30.22S
FINDLAY        CLOUDY    72  69  90 N6        30.21S FOG
TOLEDO EXPRESS PTCLDY    69  69 100 N6        30.22S
TOLEDO METCALF CLOUDY    74  72  93 NE6       30.23R
LIMA           MOCLDY    69  69 100 CALM      30.21F FOG

$$
AND FOR LAKE MICHIGAN COASTAL AND OPEN LAKE BUOY OBSERVATIONS

STATION/POSITION TEMP    WIND        PRES    VSBY  WAVE
                 AIR SEA DIR/SP/G                  HT/PER
                 (F)     (DEG/KT/KT) (MB)    (MI)  (FT/S)
CALUMET HARBOR    73      10/  3/  4 1022.1F
MICHIGAN CITY     70      20/  3/  6   N/A
BURNS HARBOR      70      80/  5/  7 1023.0S
SAINT JOSEPH      68      CALM  /  2 1023.7S
SOUTH LAKE BUOY   73 75   90/  4/  6 1022.7          1
4 MI NW BRIDGMAN  71 75   70/  2/  2 1022.7F         1/ 3
MICHIGAN CITY     72 75   50/  4/  6   N/A           1/ 4

$$
&&




USA.gov is the U.S. government's official web portal to all federal, state and local government web resources and services.